Time,TemperatureF,DewpointF,PressureIn,WindDirection,WindDirectionDegrees,WindSpeedMPH,WindSpeedGustMPH,Humidity,HourlyPrecipIn,Conditions,Clouds,dailyrainin,SoftwareType,DateUTC
2013-04-23 00:00:00,45.9,37.7,30.22,SE,141,0.0,0.0,73,0.00,,,0.00,WUHU216PEETBRO,2013-04-23 04:00:00,
2013-04-23 00:01:00,45.9,37.7,30.22,SE,141,0.0,0.0,73,0.00,,,0.00,WUHU216PEETBRO,2013-04-23 04:01:00,
2013-04-23 00:06:00,45.7,37.6,30.22,SSE,151,3.2,4.8,73,0.00,,,0.00,WUHU216PEETBRO,2013-04-23 04:06:00,
2013-04-23 00:11:00,45.9,37.7,30.22,ESE,112,0.0,4.8,73,0.00,,,0.00,WUHU216PEETBRO,2013-04-23 04:11:00,
2013-04-23 00:16:00,45.8,37.7,30.22,SE,124,0.0,4.3,73,0.00,,,0.00,WUHU216PEETBRO,2013-04-23 04:16:00,
2013-04-23 00:21:00,45.8,37.6,30.22,SSE,163,0.0,6.1,73,0.00,,,0.00,WUHU216PEETBRO,2013-04-23 04:21:00,
2013-04-23 00:26:00,45.8,37.2,30.22,SSE,153,0.0,6.1,72,0.00,,,0.00,WUHU216PEETBRO,2013-04-23 04:26:00,
2013-04-23 00:31:00,45.9,37.4,30.22,SE,136,2.9,4.8,72,0.00,,,0.00,WUHU216PEETBRO,2013-04-23 04:31:00,
2013-04-23 00:36:00,46.0,37.2,30.21,SE,124,0.0,5.8,71,0.00,,,0.00,WUHU216PEETBRO,2013-04-23 04:36:00,
2013-04-23 00:41:00,46.0,37.1,30.21,ESE,110,3.4,5.8,71,0.00,,,0.00,WUHU216PEETBRO,2013-04-23 04:41:00,
2013-04-23 00:46:00,46.0,37.2,30.21,East,98,0.0,4.8,71,0.00,,,0.00,WUHU216PEETBRO,2013-04-23 04:46:00,
2013-04-23 00:51:00,45.9,37.3,30.21,SE,136,0.0,6.1,71,0.00,,,0.00,WUHU216PEETBRO,2013-04-23 04:51:00,
2013-04-23 00:56:00,45.8,37.2,30.21,SE,141,0.0,6.1,72,0.00,,,0.00,WUHU216PEETBRO,2013-04-23 04:56:00,
2013-04-23 01:01:00,45.7,37.2,30.21,East,100,0.0,4.2,72,0.00,,,0.00,WUHU216PEETBRO,2013-04-23 05:01:00,
2013-04-23 01:06:00,45.6,37.2,30.20,SE,132,3.2,4.2,72,0.00,,,0.00,WUHU216PEETBRO,2013-04-23 05:06:00,
2013-04-23 01:11:00,45.6,37.2,30.20,East,87,0.0,5.0,72,0.00,,,0.00,WUHU216PEETBRO,2013-04-23 05:11:00,
2013-04-23 01:16:00,45.5,37.0,30.20,ESE,110,4.5,5.0,72,0.00,,,0.00,WUHU216PEETBRO,2013-04-23 05:16:00,
2013-04-23 01:21:00,45.7,37.0,30.20,ESE,119,0.0,6.9,71,0.00,,,0.00,WUHU216PEETBRO,2013-04-23 05:21:00,
2013-04-23 01:26:00,45.7,36.9,30.20,ESE,119,0.0,6.9,71,0.00,,,0.00,WUHU216PEETBRO,2013-04-23 05:26:00,
2013-04-23 01:31:00,45.7,37.0,30.20,ESE,119,0.0,0.0,71,0.00,,,0.00,WUHU216PEETBRO,2013-04-23 05:31:00,
2013-04-23 01:36:00,45.5,36.9,30.19,ESE,103,2.4,3.3,71,0.00,,,0.00,WUHU216PEETBRO,2013-04-23 05:36:00,
2013-04-23 01:41:00,45.3,36.9,30.19,NE,39,0.0,4.5,72,0.00,,,0.00,WUHU216PEETBRO,2013-04-23 05:41:00,
2013-04-23 01:46:00,45.2,36.8,30.19,NE,39,0.0,4.5,72,0.00,,,0.00,WUHU216PEETBRO,2013-04-23 05:46:00,
2013-04-23 01:51:00,45.0,36.8,30.19,East,93,0.0,3.5,73,0.00,,,0.00,WUHU216PEETBRO,2013-04-23 05:51:00,
2013-04-23 01:56:00,44.9,36.8,30.19,ESE,104,2.9,6.5,73,0.00,,,0.00,WUHU216PEETBRO,2013-04-23 05:56:00,
2013-04-23 02:01:00,44.9,36.8,30.19,ESE,121,3.4,6.5,73,0.00,,,0.00,WUHU216PEETBRO,2013-04-23 06:01:00,
2013-04-23 02:06:00,44.9,36.9,30.19,ESE,115,0.0,5.5,73,0.00,,,0.00,WUHU216PEETBRO,2013-04-23 06:06:00,
2013-04-23 02:11:00,44.8,36.9,30.19,East,100,3.2,5.3,74,0.00,,,0.00,WUHU216PEETBRO,2013-04-23 06:11:00,
2013-04-23 02:16:00,44.8,37.0,30.19,ESE,122,0.0,5.2,74,0.00,,,0.00,WUHU216PEETBRO,2013-04-23 06:16:00,
2013-04-23 02:21:00,44.7,37.0,30.19,ESE,122,0.0,4.6,74,0.00,,,0.00,WUHU216PEETBRO,2013-04-23 06:21:00,
2013-04-23 02:26:00,44.5,36.9,30.18,ESE,122,0.0,0.0,74,0.00,,,0.00,WUHU216PEETBRO,2013-04-23 06:26:00,
2013-04-23 02:31:00,44.3,37.0,30.18,ESE,122,0.0,0.0,75,0.00,,,0.00,WUHU216PEETBRO,2013-04-23 06:31:00,
2013-04-23 02:36:00,44.2,37.0,30.18,ESE,122,0.0,0.0,76,0.00,,,0.00,WUHU216PEETBRO,2013-04-23 06:36:00,
2013-04-23 02:41:00,44.1,37.1,30.18,ESE,122,0.0,0.0,76,0.01,,,0.01,WUHU216PEETBRO,2013-04-23 06:41:00,
2013-04-23 02:46:00,44.0,37.4,30.18,ESE,122,0.0,0.0,77,0.01,,,0.01,WUHU216PEETBRO,2013-04-23 06:46:00,
2013-04-23 02:51:00,44.0,37.4,30.17,ESE,122,0.0,0.0,77,0.01,,,0.01,WUHU216PEETBRO,2013-04-23 06:51:00,
2013-04-23 02:56:00,43.8,37.4,30.17,ESE,122,0.0,0.0,78,0.01,,,0.01,WUHU216PEETBRO,2013-04-23 06:56:00,
2013-04-23 03:01:00,43.8,37.6,30.17,ESE,122,0.0,0.0,79,0.01,,,0.01,WUHU216PEETBRO,2013-04-23 07:01:00,
2013-04-23 03:06:00,43.9,37.9,30.17,ESE,122,0.0,0.0,79,0.01,,,0.01,WUHU216PEETBRO,2013-04-23 07:06:00,
2013-04-23 03:11:00,43.9,37.9,30.17,ESE,122,0.0,0.0,79,0.01,,,0.01,WUHU216PEETBRO,2013-04-23 07:11:00,
2013-04-23 03:16:00,43.8,38.0,30.17,ESE,122,0.0,0.0,80,0.01,,,0.01,WUHU216PEETBRO,2013-04-23 07:16:00,
2013-04-23 03:21:00,43.7,38.1,30.17,ESE,122,0.0,0.0,81,0.01,,,0.01,WUHU216PEETBRO,2013-04-23 07:21:00,
2013-04-23 03:26:00,43.6,38.3,30.17,ESE,122,0.0,0.0,81,0.01,,,0.01,WUHU216PEETBRO,2013-04-23 07:26:00,
2013-04-23 03:31:00,43.7,38.5,30.17,ESE,122,0.0,0.0,82,0.01,,,0.01,WUHU216PEETBRO,2013-04-23 07:31:00,
2013-04-23 03:36:00,43.7,38.6,30.16,ESE,122,0.0,0.0,82,0.01,,,0.01,WUHU216PEETBRO,2013-04-23 07:36:00,
2013-04-23 03:41:00,43.7,38.7,30.16,ESE,122,0.0,0.0,83,0.00,,,0.01,WUHU216PEETBRO,2013-04-23 07:41:00,
2013-04-23 03:46:00,43.7,38.9,30.16,ESE,122,0.0,0.0,83,0.00,,,0.01,WUHU216PEETBRO,2013-04-23 07:46:00,
2013-04-23 03:51:00,43.6,39.0,30.16,ESE,122,0.0,0.0,84,0.00,,,0.01,WUHU216PEETBRO,2013-04-23 07:51:00,
2013-04-23 03:56:00,43.5,39.1,30.16,ESE,122,0.0,0.0,84,0.00,,,0.01,WUHU216PEETBRO,2013-04-23 07:56:00,
2013-04-23 04:01:00,43.5,39.2,30.16,ESE,122,0.0,0.0,85,0.00,,,0.01,WUHU216PEETBRO,2013-04-23 08:01:00,
2013-04-23 04:06:00,43.4,39.2,30.16,ESE,122,0.0,0.0,85,0.00,,,0.01,WUHU216PEETBRO,2013-04-23 08:06:00,
2013-04-23 04:11:00,43.3,39.4,30.16,ESE,122,0.0,0.0,86,0.00,,,0.01,WUHU216PEETBRO,2013-04-23 08:11:00,
2013-04-23 04:16:00,43.3,39.4,30.16,ESE,122,0.0,0.0,86,0.00,,,0.01,WUHU216PEETBRO,2013-04-23 08:16:00,
2013-04-23 04:21:00,43.2,39.5,30.15,ESE,122,0.0,0.0,87,0.00,,,0.01,WUHU216PEETBRO,2013-04-23 08:21:00,
2013-04-23 04:26:00,43.2,39.6,30.15,ESE,122,0.0,0.0,87,0.00,,,0.01,WUHU216PEETBRO,2013-04-23 08:26:00,
2013-04-23 04:31:00,43.3,39.8,30.15,ESE,122,0.0,0.0,87,0.00,,,0.01,WUHU216PEETBRO,2013-04-23 08:31:00,
2013-04-23 04:36:00,43.4,39.8,30.15,ESE,122,0.0,0.0,87,0.00,,,0.01,WUHU216PEETBRO,2013-04-23 08:36:00,
2013-04-23 04:41:00,43.4,39.9,30.14,ESE,122,0.0,0.0,87,0.00,,,0.01,WUHU216PEETBRO,2013-04-23 08:41:00,
2013-04-23 04:46:00,43.3,40.0,30.14,ESE,122,0.0,0.0,88,0.00,,,0.01,WUHU216PEETBRO,2013-04-23 08:46:00,
2013-04-23 04:51:00,43.2,40.0,30.14,ESE,122,0.0,0.0,89,0.00,,,0.01,WUHU216PEETBRO,2013-04-23 08:51:00,
2013-04-23 04:56:00,43.2,40.1,30.14,ESE,122,0.0,0.0,89,0.00,,,0.01,WUHU216PEETBRO,2013-04-23 08:56:00,
2013-04-23 05:01:00,43.2,40.1,30.14,ESE,122,0.0,0.0,89,0.00,,,0.01,WUHU216PEETBRO,2013-04-23 09:01:00,
2013-04-23 05:06:00,43.2,40.2,30.14,ESE,122,0.0,0.0,89,0.00,,,0.01,WUHU216PEETBRO,2013-04-23 09:06:00,
2013-04-23 05:11:00,43.1,40.2,30.14,ESE,122,0.0,0.0,90,0.00,,,0.01,WUHU216PEETBRO,2013-04-23 09:11:00,
2013-04-23 05:16:00,43.0,40.2,30.14,ESE,122,0.0,0.0,90,0.00,,,0.01,WUHU216PEETBRO,2013-04-23 09:16:00,
2013-04-23 05:21:00,42.9,40.2,30.14,ESE,122,0.0,0.0,90,0.00,,,0.01,WUHU216PEETBRO,2013-04-23 09:21:00,
2013-04-23 05:26:00,42.8,40.1,30.14,ESE,122,0.0,0.0,90,0.00,,,0.01,WUHU216PEETBRO,2013-04-23 09:26:00,
2013-04-23 05:31:00,42.7,40.0,30.14,ESE,122,0.0,0.0,90,0.00,,,0.01,WUHU216PEETBRO,2013-04-23 09:31:00,
2013-04-23 05:36:00,42.7,40.0,30.14,ESE,122,0.0,0.0,90,0.00,,,0.01,WUHU216PEETBRO,2013-04-23 09:36:00,
2013-04-23 05:41:00,42.6,40.0,30.14,ESE,122,0.0,0.0,91,0.00,,,0.01,WUHU216PEETBRO,2013-04-23 09:41:00,
2013-04-23 05:46:00,42.6,40.0,30.14,ESE,122,0.0,0.0,91,0.00,,,0.01,WUHU216PEETBRO,2013-04-23 09:46:00,
2013-04-23 05:51:00,42.8,40.1,30.13,ESE,122,0.0,0.0,90,0.00,,,0.01,WUHU216PEETBRO,2013-04-23 09:51:00,
2013-04-23 05:56:00,42.7,40.0,30.13,SE,138,0.0,3.2,90,0.00,,,0.01,WUHU216PEETBRO,2013-04-23 09:56:00,
2013-04-23 06:01:00,42.7,40.1,30.13,SE,128,0.0,5.8,91,0.00,,,0.01,WUHU216PEETBRO,2013-04-23 10:01:00,
2013-04-23 06:06:00,42.7,40.0,30.13,SE,128,0.0,5.8,90,0.00,,,0.01,WUHU216PEETBRO,2013-04-23 10:06:00,
2013-04-23 06:11:00,42.7,40.0,30.12,SE,128,0.0,2.8,90,0.00,,,0.01,WUHU216PEETBRO,2013-04-23 10:11:00,
2013-04-23 06:16:00,42.7,39.9,30.12,SE,129,0.0,5.0,90,0.00,,,0.01,WUHU216PEETBRO,2013-04-23 10:16:00,
2013-04-23 06:21:00,43.1,40.0,30.12,SE,135,0.0,7.8,89,0.00,,,0.01,WUHU216PEETBRO,2013-04-23 10:21:00,
2013-04-23 06:26:00,43.0,39.7,30.12,SE,138,5.4,7.8,88,0.00,,,0.01,WUHU216PEETBRO,2013-04-23 10:26:00,
2013-04-23 06:31:00,43.0,39.8,30.11,SE,135,3.5,6.8,89,0.00,,,0.01,WUHU216PEETBRO,2013-04-23 10:31:00,
2013-04-23 06:36:00,43.0,39.8,30.11,SE,142,0.0,6.5,89,0.00,,,0.01,WUHU216PEETBRO,2013-04-23 10:36:00,
2013-04-23 06:41:00,42.9,39.8,30.11,SSE,153,0.0,6.5,89,0.00,,,0.01,WUHU216PEETBRO,2013-04-23 10:41:00,
2013-04-23 06:46:00,42.8,39.7,30.11,SSE,166,4.7,6.0,89,0.00,,,0.01,WUHU216PEETBRO,2013-04-23 10:46:00,
2013-04-23 06:51:00,42.9,39.8,30.11,SSE,167,3.4,6.1,89,0.00,,,0.01,WUHU216PEETBRO,2013-04-23 10:51:00,
2013-04-23 06:56:00,42.9,39.8,30.11,SE,134,0.0,6.1,89,0.00,,,0.01,WUHU216PEETBRO,2013-04-23 10:56:00,
2013-04-23 07:01:00,43.1,39.9,30.11,South,180,5.3,6.2,89,0.00,,,0.01,WUHU216PEETBRO,2013-04-23 11:01:00,
2013-04-23 07:06:00,43.3,39.9,30.11,SE,134,3.5,6.8,88,0.00,,,0.01,WUHU216PEETBRO,2013-04-23 11:06:00,
2013-04-23 07:11:00,43.4,39.9,30.10,ESE,117,3.4,8.3,87,0.00,,,0.01,WUHU216PEETBRO,2013-04-23 11:11:00,
2013-04-23 07:16:00,43.7,39.9,30.10,SSE,152,2.7,8.3,86,0.00,,,0.01,WUHU216PEETBRO,2013-04-23 11:16:00,
2013-04-23 07:21:00,44.0,40.2,30.11,SSE,148,0.0,8.3,87,0.00,,,0.01,WUHU216PEETBRO,2013-04-23 11:21:00,
2013-04-23 07:26:00,44.2,40.1,30.12,SSE,151,2.5,8.3,85,0.00,,,0.01,WUHU216PEETBRO,2013-04-23 11:26:00,
2013-04-23 07:31:00,44.5,40.2,30.12,SSE,162,6.6,6.6,85,0.00,,,0.01,WUHU216PEETBRO,2013-04-23 11:31:00,
2013-04-23 07:36:00,44.9,40.0,30.12,South,173,4.8,9.8,83,0.00,,,0.01,WUHU216PEETBRO,2013-04-23 11:36:00,
2013-04-23 07:41:00,45.2,40.3,30.12,SSE,163,3.3,9.8,83,0.00,,,0.01,WUHU216PEETBRO,2013-04-23 11:41:00,
2013-04-23 07:46:00,45.3,39.8,30.11,SSE,158,5.8,7.3,81,0.00,,,0.01,WUHU216PEETBRO,2013-04-23 11:46:00,
2013-04-23 07:51:00,45.3,40.0,30.11,SSE,166,3.2,7.1,82,0.00,,,0.01,WUHU216PEETBRO,2013-04-23 11:51:00,
2013-04-23 07:56:00,45.4,39.8,30.11,South,190,4.2,7.6,81,0.00,,,0.01,WUHU216PEETBRO,2013-04-23 11:56:00,
2013-04-23 08:01:00,45.5,39.6,30.11,South,186,3.4,8.3,80,0.00,,,0.01,WUHU216PEETBRO,2013-04-23 12:01:00,
2013-04-23 08:06:00,45.7,39.8,30.12,South,177,3.1,8.3,80,0.00,,,0.01,WUHU216PEETBRO,2013-04-23 12:06:00,
2013-04-23 08:11:00,45.8,40.1,30.12,SSE,151,3.0,9.1,80,0.00,,,0.01,WUHU216PEETBRO,2013-04-23 12:11:00,
2013-04-23 08:16:00,45.9,40.0,30.12,SE,135,4.8,9.1,80,0.00,,,0.01,WUHU216PEETBRO,2013-04-23 12:16:00,
2013-04-23 08:21:00,46.3,40.3,30.11,ESE,107,0.0,8.6,79,0.00,,,0.01,WUHU216PEETBRO,2013-04-23 12:21:00,
2013-04-23 08:26:00,46.4,40.1,30.12,East,87,4.2,7.5,79,0.00,,,0.01,WUHU216PEETBRO,2013-04-23 12:26:00,
2013-04-23 08:31:00,46.6,40.7,30.12,SE,132,2.1,7.4,80,0.00,,,0.01,WUHU216PEETBRO,2013-04-23 12:31:00,
2013-04-23 08:36:00,46.8,40.7,30.12,South,187,0.0,8.5,79,0.00,,,0.01,WUHU216PEETBRO,2013-04-23 12:36:00,
2013-04-23 08:41:00,46.9,40.1,30.11,South,175,3.4,8.5,77,0.00,,,0.01,WUHU216PEETBRO,2013-04-23 12:41:00,
2013-04-23 08:46:00,47.2,40.4,30.11,ESE,105,4.3,8.1,77,0.00,,,0.01,WUHU216PEETBRO,2013-04-23 12:46:00,
2013-04-23 08:51:00,47.5,40.2,30.11,South,184,4.2,8.1,76,0.00,,,0.01,WUHU216PEETBRO,2013-04-23 12:51:00,
2013-04-23 08:56:00,47.6,40.5,30.10,South,172,2.9,7.6,76,0.00,,,0.01,WUHU216PEETBRO,2013-04-23 12:56:00,
2013-04-23 09:01:00,48.0,40.4,30.10,South,177,6.6,10.9,75,0.00,,,0.01,WUHU216PEETBRO,2013-04-23 13:01:00,
2013-04-23 09:06:00,48.2,39.7,30.10,SSE,162,3.2,10.9,72,0.00,,,0.01,WUHU216PEETBRO,2013-04-23 13:06:00,
2013-04-23 09:11:00,48.6,40.9,30.09,ESE,121,0.0,9.4,75,0.00,,,0.01,WUHU216PEETBRO,2013-04-23 13:11:00,
2013-04-23 09:16:00,48.3,39.9,30.09,SSE,156,5.2,9.9,72,0.00,,,0.01,WUHU216PEETBRO,2013-04-23 13:16:00,
2013-04-23 09:21:00,48.6,40.0,30.10,South,182,4.3,9.9,72,0.00,,,0.01,WUHU216PEETBRO,2013-04-23 13:21:00,
2013-04-23 09:26:00,49.4,41.7,30.10,SW,215,5.3,7.8,74,0.00,,,0.01,WUHU216PEETBRO,2013-04-23 13:26:00,
2013-04-23 09:31:00,50.0,40.5,30.10,South,190,6.2,12.1,70,0.00,,,0.01,WUHU216PEETBRO,2013-04-23 13:31:00,
2013-04-23 09:36:00,50.3,40.3,30.10,SSW,200,6.3,12.1,68,0.00,,,0.01,WUHU216PEETBRO,2013-04-23 13:36:00,
2013-04-23 09:41:00,50.9,41.4,30.11,South,183,5.0,11.2,70,0.00,,,0.01,WUHU216PEETBRO,2013-04-23 13:41:00,
2013-04-23 09:46:00,51.4,40.7,30.11,SSE,152,3.2,9.9,66,0.00,,,0.01,WUHU216PEETBRO,2013-04-23 13:46:00,
2013-04-23 09:51:00,51.7,39.2,30.11,South,172,7.0,9.9,62,0.00,,,0.01,WUHU216PEETBRO,2013-04-23 13:51:00,
2013-04-23 09:56:00,52.1,41.0,30.11,SW,224,6.2,9.2,66,0.00,,,0.01,WUHU216PEETBRO,2013-04-23 13:56:00,
2013-04-23 10:01:00,52.4,41.7,30.10,SSW,196,4.3,10.0,67,0.00,,,0.01,WUHU216PEETBRO,2013-04-23 14:01:00,
2013-04-23 10:06:00,53.3,41.7,30.10,South,175,3.3,10.0,64,0.00,,,0.01,WUHU216PEETBRO,2013-04-23 14:06:00,
2013-04-23 10:11:00,53.6,40.1,30.09,SSE,159,0.0,9.2,60,0.00,,,0.01,WUHU216PEETBRO,2013-04-23 14:11:00,
2013-04-23 10:16:00,54.0,40.8,30.09,South,180,5.2,9.2,61,0.00,,,0.01,WUHU216PEETBRO,2013-04-23 14:16:00,
2013-04-23 10:21:00,54.1,39.6,30.09,SW,230,7.0,12.1,58,0.00,,,0.01,WUHU216PEETBRO,2013-04-23 14:21:00,
2013-04-23 10:26:00,54.6,41.1,30.08,SSE,162,5.6,12.1,60,0.00,,,0.01,WUHU216PEETBRO,2013-04-23 14:26:00,
2013-04-23 10:31:00,55.2,41.8,30.07,South,191,5.1,8.7,60,0.00,,,0.01,WUHU216PEETBRO,2013-04-23 14:31:00,
2013-04-23 10:36:00,55.0,40.7,30.08,WSW,247,6.6,10.7,58,0.00,,,0.01,WUHU216PEETBRO,2013-04-23 14:36:00,
2013-04-23 10:41:00,55.6,41.1,30.07,SSW,206,5.8,10.7,58,0.00,,,0.01,WUHU216PEETBRO,2013-04-23 14:41:00,
2013-04-23 10:46:00,56.3,41.8,30.06,SSW,204,5.7,9.8,58,0.00,,,0.01,WUHU216PEETBRO,2013-04-23 14:46:00,
2013-04-23 10:51:00,56.9,43.4,30.06,SSE,158,4.7,8.1,60,0.00,,,0.01,WUHU216PEETBRO,2013-04-23 14:51:00,
2013-04-23 10:56:00,56.9,41.6,30.06,South,183,7.3,9.8,56,0.00,,,0.01,WUHU216PEETBRO,2013-04-23 14:56:00,
2013-04-23 11:01:00,57.3,43.9,30.05,ESE,112,5.2,9.8,61,0.00,,,0.01,WUHU216PEETBRO,2013-04-23 15:01:00,
2013-04-23 11:06:00,57.5,42.1,30.06,SSE,155,3.4,9.8,56,0.00,,,0.01,WUHU216PEETBRO,2013-04-23 15:06:00,
2013-04-23 11:11:00,57.9,43.6,30.06,SW,225,9.4,9.8,59,0.00,,,0.01,WUHU216PEETBRO,2013-04-23 15:11:00,
2013-04-23 11:16:00,58.4,40.6,30.06,South,169,8.6,13.0,52,0.00,,,0.01,WUHU216PEETBRO,2013-04-23 15:16:00,
2013-04-23 11:21:00,58.3,40.5,30.05,SE,146,6.1,13.0,51,0.00,,,0.01,WUHU216PEETBRO,2013-04-23 15:21:00,
2013-04-23 11:26:00,58.7,42.8,30.06,WSW,242,6.0,11.3,55,0.00,,,0.01,WUHU216PEETBRO,2013-04-23 15:26:00,
2013-04-23 11:31:00,58.7,41.6,30.05,SSE,165,3.4,11.1,53,0.00,,,0.01,WUHU216PEETBRO,2013-04-23 15:31:00,
2013-04-23 11:36:00,59.5,42.7,30.05,South,172,7.6,11.1,54,0.00,,,0.01,WUHU216PEETBRO,2013-04-23 15:36:00,
2013-04-23 11:41:00,59.4,41.6,30.05,SSE,167,5.7,10.6,52,0.00,,,0.01,WUHU216PEETBRO,2013-04-23 15:41:00,
2013-04-23 11:46:00,59.9,43.7,30.05,SSE,153,6.2,10.6,55,0.00,,,0.01,WUHU216PEETBRO,2013-04-23 15:46:00,
2013-04-23 11:51:00,60.4,44.6,30.05,SE,145,3.4,8.9,56,0.00,,,0.01,WUHU216PEETBRO,2013-04-23 15:51:00,
2013-04-23 11:56:00,60.6,42.3,30.05,SSW,196,5.6,10.9,51,0.00,,,0.01,WUHU216PEETBRO,2013-04-23 15:56:00,
2013-04-23 12:01:00,60.9,42.4,30.05,SSE,162,0.0,11.6,51,0.00,,,0.01,WUHU216PEETBRO,2013-04-23 16:01:00,
2013-04-23 12:06:00,61.5,43.8,30.05,ESE,104,3.4,11.6,52,0.00,,,0.01,WUHU216PEETBRO,2013-04-23 16:06:00,
2013-04-23 12:11:00,61.7,44.6,30.04,South,179,5.1,8.6,53,0.00,,,0.01,WUHU216PEETBRO,2013-04-23 16:11:00,
2013-04-23 12:16:00,61.7,42.2,30.04,South,186,5.8,10.0,49,0.00,,,0.01,WUHU216PEETBRO,2013-04-23 16:16:00,
2013-04-23 12:21:00,62.2,44.5,30.04,SSW,199,8.1,10.0,52,0.00,,,0.01,WUHU216PEETBRO,2013-04-23 16:21:00,
2013-04-23 12:26:00,62.2,43.2,30.03,SSE,151,5.2,9.4,50,0.00,,,0.01,WUHU216PEETBRO,2013-04-23 16:26:00,
2013-04-23 12:31:00,61.9,43.0,30.03,SSE,159,4.3,11.6,50,0.00,,,0.01,WUHU216PEETBRO,2013-04-23 16:31:00,
2013-04-23 12:36:00,61.8,42.0,30.03,ESE,112,5.5,11.6,48,0.00,,,0.01,WUHU216PEETBRO,2013-04-23 16:36:00,
2013-04-23 12:41:00,62.1,42.6,30.02,SSW,203,5.2,9.4,49,0.00,,,0.01,WUHU216PEETBRO,2013-04-23 16:41:00,
2013-04-23 12:46:00,62.2,43.0,30.02,ESE,122,8.5,9.3,49,0.00,,,0.01,WUHU216PEETBRO,2013-04-23 16:46:00,
2013-04-23 12:51:00,62.6,42.8,30.02,SE,128,7.1,10.9,48,0.00,,,0.01,WUHU216PEETBRO,2013-04-23 16:51:00,
2013-04-23 12:56:00,63.0,42.9,30.02,SSE,159,4.3,11.4,48,0.00,,,0.01,WUHU216PEETBRO,2013-04-23 16:56:00,
2013-04-23 13:01:00,63.4,43.5,30.01,SSW,203,6.6,11.4,48,0.00,,,0.01,WUHU216PEETBRO,2013-04-23 17:01:00,
2013-04-23 13:06:00,63.4,43.7,30.01,SE,134,4.7,11.2,49,0.00,,,0.01,WUHU216PEETBRO,2013-04-23 17:06:00,
2013-04-23 13:11:00,63.2,43.7,30.01,SSE,152,2.4,8.8,49,0.00,,,0.01,WUHU216PEETBRO,2013-04-23 17:11:00,
2013-04-23 13:16:00,63.2,43.4,30.00,SSE,166,5.7,8.8,48,0.00,,,0.01,WUHU216PEETBRO,2013-04-23 17:16:00,
2013-04-23 13:21:00,63.4,44.0,30.00,SSE,152,6.0,9.9,49,0.00,,,0.01,WUHU216PEETBRO,2013-04-23 17:21:00,
2013-04-23 13:26:00,63.7,44.2,30.00,SW,214,5.9,9.9,49,0.00,,,0.01,WUHU216PEETBRO,2013-04-23 17:26:00,
2013-04-23 13:31:00,63.4,43.0,30.00,SE,145,4.8,10.4,47,0.00,,,0.01,WUHU216PEETBRO,2013-04-23 17:31:00,
2013-04-23 13:36:00,63.4,43.2,30.00,SW,224,7.0,10.4,48,0.00,,,0.01,WUHU216PEETBRO,2013-04-23 17:36:00,
2013-04-23 13:41:00,63.3,44.1,29.99,SW,218,5.7,11.6,50,0.00,,,0.01,WUHU216PEETBRO,2013-04-23 17:41:00,
2013-04-23 13:46:00,63.2,43.4,29.99,ESE,114,6.0,11.6,48,0.00,,,0.01,WUHU216PEETBRO,2013-04-23 17:46:00,
2013-04-23 13:51:00,63.3,43.4,29.98,SSE,162,4.3,8.6,48,0.00,,,0.01,WUHU216PEETBRO,2013-04-23 17:51:00,
2013-04-23 13:56:00,63.5,43.1,29.98,SE,125,6.0,12.6,47,0.00,,,0.01,WUHU216PEETBRO,2013-04-23 17:56:00,
2013-04-23 14:01:00,63.4,43.3,29.98,ESE,118,5.7,12.6,48,0.00,,,0.01,WUHU216PEETBRO,2013-04-23 18:01:00,
2013-04-23 14:06:00,63.3,42.9,29.98,South,173,4.2,9.1,47,0.00,,,0.01,WUHU216PEETBRO,2013-04-23 18:06:00,
2013-04-23 14:11:00,63.5,42.4,29.98,SSW,194,6.1,12.6,46,0.00,,,0.01,WUHU216PEETBRO,2013-04-23 18:11:00,
2013-04-23 14:16:00,63.9,43.1,29.97,West,276,5.0,15.2,47,0.00,,,0.01,WUHU216PEETBRO,2013-04-23 18:16:00,
2013-04-23 14:21:00,64.4,41.7,29.98,South,183,13.9,15.2,44,0.00,,,0.01,WUHU216PEETBRO,2013-04-23 18:21:00,
2013-04-23 14:26:00,64.3,42.2,29.97,SSW,204,11.2,15.4,45,0.00,,,0.01,WUHU216PEETBRO,2013-04-23 18:26:00,
2013-04-23 14:31:00,64.2,42.6,29.97,South,177,10.7,16.2,45,0.00,,,0.01,WUHU216PEETBRO,2013-04-23 18:31:00,
2013-04-23 14:36:00,64.2,41.6,29.97,SSW,203,6.0,16.2,44,0.00,,,0.01,WUHU216PEETBRO,2013-04-23 18:36:00,
2013-04-23 14:41:00,64.6,42.5,29.96,SW,217,9.6,15.3,45,0.00,,,0.01,WUHU216PEETBRO,2013-04-23 18:41:00,
2013-04-23 14:46:00,65.0,42.2,29.96,South,182,13.0,17.1,44,0.00,,,0.01,WUHU216PEETBRO,2013-04-23 18:46:00,
2013-04-23 14:51:00,65.3,44.1,29.96,South,175,7.1,17.1,46,0.00,,,0.01,WUHU216PEETBRO,2013-04-23 18:51:00,
2013-04-23 14:56:00,65.7,43.8,29.95,South,187,7.4,14.0,45,0.00,,,0.01,WUHU216PEETBRO,2013-04-23 18:56:00,
2013-04-23 15:01:00,65.5,42.7,29.95,South,189,10.6,15.6,44,0.00,,,0.01,WUHU216PEETBRO,2013-04-23 19:01:00,
2013-04-23 15:06:00,65.7,45.5,29.94,WSW,247,4.3,15.6,48,0.00,,,0.01,WUHU216PEETBRO,2013-04-23 19:06:00,
2013-04-23 15:11:00,65.9,44.3,29.94,South,177,9.3,10.7,46,0.00,,,0.01,WUHU216PEETBRO,2013-04-23 19:11:00,
2013-04-23 15:16:00,65.7,43.8,29.94,SE,132,3.4,10.7,45,0.00,,,0.01,WUHU216PEETBRO,2013-04-23 19:16:00,
2013-04-23 15:21:00,65.5,45.5,29.94,South,170,5.7,9.7,48,0.00,,,0.01,WUHU216PEETBRO,2013-04-23 19:21:00,
2013-04-23 15:26:00,65.8,45.0,29.94,South,191,6.2,13.0,47,0.00,,,0.01,WUHU216PEETBRO,2013-04-23 19:26:00,
2013-04-23 15:31:00,65.8,44.5,29.93,SSE,151,2.3,13.0,46,0.00,,,0.01,WUHU216PEETBRO,2013-04-23 19:31:00,
2013-04-23 15:36:00,65.8,45.3,29.93,SSW,197,8.7,9.9,48,0.00,,,0.01,WUHU216PEETBRO,2013-04-23 19:36:00,
2013-04-23 15:41:00,65.9,44.3,29.93,South,169,3.4,9.9,46,0.00,,,0.01,WUHU216PEETBRO,2013-04-23 19:41:00,
2013-04-23 15:46:00,66.0,44.6,29.93,SW,215,5.3,9.9,46,0.00,,,0.01,WUHU216PEETBRO,2013-04-23 19:46:00,
2013-04-23 15:51:00,66.2,43.7,29.92,South,177,5.9,10.2,44,0.00,,,0.01,WUHU216PEETBRO,2013-04-23 19:51:00,
2013-04-23 15:56:00,66.3,44.4,29.92,South,179,4.9,10.4,45,0.00,,,0.01,WUHU216PEETBRO,2013-04-23 19:56:00,
2013-04-23 16:01:00,66.7,44.5,29.92,SSW,206,10.7,13.3,45,0.00,,,0.01,WUHU216PEETBRO,2013-04-23 20:01:00,
2013-04-23 16:06:00,67.1,44.8,29.92,SW,218,5.2,16.5,45,0.00,,,0.01,WUHU216PEETBRO,2013-04-23 20:06:00,
2013-04-23 16:11:00,67.2,46.6,29.91,South,186,2.7,16.5,48,0.00,,,0.01,WUHU216PEETBRO,2013-04-23 20:11:00,
2013-04-23 16:16:00,67.0,44.5,29.91,SW,223,5.9,11.6,44,0.00,,,0.01,WUHU216PEETBRO,2013-04-23 20:16:00,
2013-04-23 16:21:00,67.0,43.8,29.91,South,175,9.1,15.9,43,0.00,,,0.01,WUHU216PEETBRO,2013-04-23 20:21:00,
2013-04-23 16:26:00,67.0,43.7,29.90,South,179,7.0,15.9,43,0.00,,,0.01,WUHU216PEETBRO,2013-04-23 20:26:00,
2013-04-23 16:31:00,67.2,45.1,29.90,South,187,4.7,15.5,45,0.00,,,0.01,WUHU216PEETBRO,2013-04-23 20:31:00,
2013-04-23 16:36:00,67.1,44.7,29.90,WSW,256,8.3,15.5,45,0.00,,,0.01,WUHU216PEETBRO,2013-04-23 20:36:00,
2013-04-23 16:41:00,67.2,45.2,29.89,SSW,193,5.1,14.4,45,0.00,,,0.01,WUHU216PEETBRO,2013-04-23 20:41:00,
2013-04-23 16:46:00,66.8,45.1,29.89,SSE,167,5.4,14.4,46,0.00,,,0.01,WUHU216PEETBRO,2013-04-23 20:46:00,
2013-04-23 16:51:00,66.1,45.2,29.89,SE,145,5.8,10.9,47,0.00,,,0.01,WUHU216PEETBRO,2013-04-23 20:51:00,
2013-04-23 16:56:00,66.0,44.9,29.88,SSW,200,3.5,10.9,47,0.00,,,0.01,WUHU216PEETBRO,2013-04-23 20:56:00,
2013-04-23 17:01:00,66.2,45.5,29.88,SE,128,7.0,10.9,47,0.00,,,0.01,WUHU216PEETBRO,2013-04-23 21:01:00,
2013-04-23 17:06:00,66.5,46.5,29.88,ESE,121,5.0,9.4,49,0.00,,,0.01,WUHU216PEETBRO,2013-04-23 21:06:00,
2013-04-23 17:11:00,66.2,45.9,29.88,SE,132,6.4,8.6,48,0.00,,,0.01,WUHU216PEETBRO,2013-04-23 21:11:00,
2013-04-23 17:16:00,66.0,46.2,29.87,SW,232,5.2,8.1,49,0.00,,,0.01,WUHU216PEETBRO,2013-04-23 21:16:00,
2013-04-23 17:21:00,65.7,45.5,29.87,SSW,200,6.8,8.9,48,0.00,,,0.01,WUHU216PEETBRO,2013-04-23 21:21:00,
2013-04-23 17:26:00,66.2,43.9,29.87,WSW,247,5.4,11.5,45,0.00,,,0.01,WUHU216PEETBRO,2013-04-23 21:26:00,
2013-04-23 17:31:00,67.0,43.0,29.87,SW,234,11.0,17.0,42,0.00,,,0.01,WUHU216PEETBRO,2013-04-23 21:31:00,
2013-04-23 17:36:00,67.4,45.6,29.87,South,191,7.0,17.0,46,0.00,,,0.01,WUHU216PEETBRO,2013-04-23 21:36:00,
2013-04-23 17:41:00,67.3,43.6,29.86,SW,218,10.2,14.4,42,0.00,,,0.01,WUHU216PEETBRO,2013-04-23 21:41:00,
2013-04-23 17:46:00,67.3,43.6,29.86,South,169,8.9,19.8,43,0.00,,,0.01,WUHU216PEETBRO,2013-04-23 21:46:00,
2013-04-23 17:51:00,67.4,43.9,29.86,WSW,238,7.3,20.1,43,0.00,,,0.01,WUHU216PEETBRO,2013-04-23 21:51:00,
2013-04-23 17:56:00,67.3,44.0,29.86,WSW,245,6.8,20.1,43,0.00,,,0.01,WUHU216PEETBRO,2013-04-23 21:56:00,
2013-04-23 18:01:00,67.4,45.2,29.86,SW,224,3.4,13.2,45,0.00,,,0.01,WUHU216PEETBRO,2013-04-23 22:01:00,
2013-04-23 18:06:00,67.3,45.8,29.86,SSW,199,5.9,14.0,46,0.00,,,0.01,WUHU216PEETBRO,2013-04-23 22:06:00,
2013-04-23 18:11:00,67.2,45.3,29.86,SSW,207,2.8,14.0,45,0.00,,,0.01,WUHU216PEETBRO,2013-04-23 22:11:00,
2013-04-23 18:16:00,67.0,44.9,29.85,SW,235,5.2,14.2,45,0.00,,,0.01,WUHU216PEETBRO,2013-04-23 22:16:00,
2013-04-23 18:21:00,67.0,44.2,29.85,SW,223,7.4,17.9,44,0.00,,,0.01,WUHU216PEETBRO,2013-04-23 22:21:00,
2013-04-23 18:26:00,67.0,45.1,29.85,SSE,156,5.0,17.9,45,0.00,,,0.01,WUHU216PEETBRO,2013-04-23 22:26:00,
2013-04-23 18:31:00,65.7,45.1,29.85,SE,141,5.1,12.6,47,0.00,,,0.01,WUHU216PEETBRO,2013-04-23 22:31:00,
2013-04-23 18:36:00,64.8,45.3,29.85,South,175,5.9,9.8,49,0.00,,,0.01,WUHU216PEETBRO,2013-04-23 22:36:00,
2013-04-23 18:41:00,64.2,46.1,29.85,ESE,107,0.0,8.5,52,0.00,,,0.01,WUHU216PEETBRO,2013-04-23 22:41:00,
2013-04-23 18:46:00,63.9,46.7,29.85,South,177,2.5,9.8,53,0.00,,,0.01,WUHU216PEETBRO,2013-04-23 22:46:00,
2013-04-23 18:51:00,63.4,46.7,29.85,SE,138,2.9,9.8,54,0.00,,,0.01,WUHU216PEETBRO,2013-04-23 22:51:00,
2013-04-23 18:56:00,63.1,46.5,29.85,SE,135,3.4,6.3,54,0.00,,,0.01,WUHU216PEETBRO,2013-04-23 22:56:00,
2013-04-23 19:01:00,62.9,46.9,29.85,SSE,152,3.4,6.3,56,0.00,,,0.01,WUHU216PEETBRO,2013-04-23 23:01:00,
2013-04-23 19:06:00,63.7,46.0,29.86,West,263,15.6,16.9,52,0.00,,,0.01,WUHU216PEETBRO,2013-04-23 23:06:00,
2013-04-23 19:11:00,63.9,49.6,29.86,WSW,238,5.2,17.2,59,0.00,,,0.01,WUHU216PEETBRO,2013-04-23 23:11:00,
2013-04-23 19:16:00,63.0,50.6,29.87,SW,215,7.6,17.2,64,0.00,,,0.01,WUHU216PEETBRO,2013-04-23 23:16:00,
2013-04-23 19:21:00,62.2,51.9,29.87,SW,228,5.8,13.5,69,0.00,,,0.01,WUHU216PEETBRO,2013-04-23 23:21:00,
2013-04-23 19:26:00,60.8,53.4,29.88,WSW,248,17.3,22.6,76,0.00,,,0.01,WUHU216PEETBRO,2013-04-23 23:26:00,
2013-04-23 19:31:00,59.4,55.1,29.88,SW,231,6.6,22.6,86,0.01,,,0.02,WUHU216PEETBRO,2013-04-23 23:31:00,
2013-04-23 19:36:00,58.8,55.8,29.89,West,262,5.0,19.1,90,0.02,,,0.03,WUHU216PEETBRO,2013-04-23 23:36:00,
2013-04-23 19:41:00,58.0,55.8,29.88,WNW,283,6.6,16.2,93,0.02,,,0.03,WUHU216PEETBRO,2013-04-23 23:41:00,
2013-04-23 19:46:00,57.9,56.1,29.88,WSW,249,0.0,13.9,94,0.03,,,0.04,WUHU216PEETBRO,2013-04-23 23:46:00,
2013-04-23 19:51:00,57.7,56.1,29.88,SW,220,5.6,13.9,95,0.03,,,0.04,WUHU216PEETBRO,2013-04-23 23:51:00,
2013-04-23 19:56:00,57.5,56.2,29.89,WSW,241,0.0,9.6,96,0.03,,,0.04,WUHU216PEETBRO,2013-04-23 23:56:00,
2013-04-23 20:01:00,57.3,56.3,29.89,West,272,0.0,7.1,97,0.04,,,0.05,WUHU216PEETBRO,2013-04-24 00:01:00,
2013-04-23 20:06:00,57.1,56.3,29.89,West,265,0.0,7.2,97,0.05,,,0.06,WUHU216PEETBRO,2013-04-24 00:06:00,
2013-04-23 20:11:00,56.8,56.2,29.88,South,186,0.0,7.2,98,0.06,,,0.07,WUHU216PEETBRO,2013-04-24 00:11:00,
2013-04-23 20:16:00,56.7,56.3,29.88,SW,230,0.0,6.3,99,0.06,,,0.07,WUHU216PEETBRO,2013-04-24 00:16:00,
2013-04-23 20:21:00,56.5,56.0,29.88,SSW,206,2.9,6.9,98,0.06,,,0.07,WUHU216PEETBRO,2013-04-24 00:21:00,
2013-04-23 20:26:00,56.4,56.1,29.88,SSW,206,0.0,6.9,99,0.06,,,0.07,WUHU216PEETBRO,2013-04-24 00:26:00,
2013-04-23 20:31:00,56.4,56.0,29.88,WSW,239,0.0,5.4,99,0.05,,,0.07,WUHU216PEETBRO,2013-04-24 00:31:00,
2013-04-23 20:36:00,56.3,56.0,29.87,WSW,239,0.0,5.4,99,0.04,,,0.07,WUHU216PEETBRO,2013-04-24 00:36:00,
2013-04-23 20:41:00,56.2,55.9,29.87,WSW,239,0.0,0.0,99,0.04,,,0.07,WUHU216PEETBRO,2013-04-24 00:41:00,
2013-04-23 20:46:00,56.1,56.1,29.87,WSW,239,0.0,0.0,100,0.03,,,0.07,WUHU216PEETBRO,2013-04-24 00:46:00,
2013-04-23 20:51:00,56.1,56.1,29.88,SW,232,0.0,3.2,100,0.04,,,0.08,WUHU216PEETBRO,2013-04-24 00:51:00,
2013-04-23 20:56:00,56.1,56.1,29.87,SW,232,3.5,3.5,100,0.04,,,0.08,WUHU216PEETBRO,2013-04-24 00:56:00,
2013-04-23 21:01:00,56.1,56.1,29.87,SSW,213,0.0,4.3,100,0.03,,,0.08,WUHU216PEETBRO,2013-04-24 01:01:00,
2013-04-23 21:06:00,56.1,56.1,29.88,SSW,213,0.0,4.3,100,0.02,,,0.08,WUHU216PEETBRO,2013-04-24 01:06:00,
2013-04-23 21:11:00,56.1,56.1,29.87,SSW,213,0.0,0.0,100,0.01,,,0.08,WUHU216PEETBRO,2013-04-24 01:11:00,
2013-04-23 21:16:00,55.9,55.9,29.87,SSW,200,0.0,6.7,100,0.01,,,0.08,WUHU216PEETBRO,2013-04-24 01:16:00,
2013-04-23 21:21:00,55.9,55.9,29.87,SSW,200,0.0,6.7,100,0.01,,,0.08,WUHU216PEETBRO,2013-04-24 01:21:00,
2013-04-23 21:26:00,55.9,55.9,29.87,SW,228,0.0,3.1,100,0.01,,,0.08,WUHU216PEETBRO,2013-04-24 01:26:00,
2013-04-23 21:31:00,55.9,55.9,29.87,SSE,148,0.0,8.0,100,0.02,,,0.09,WUHU216PEETBRO,2013-04-24 01:31:00,
2013-04-23 21:36:00,55.8,55.8,29.87,SSE,148,0.0,8.0,100,0.02,,,0.09,WUHU216PEETBRO,2013-04-24 01:36:00,
2013-04-23 21:41:00,55.8,55.8,29.87,SW,214,5.5,8.5,100,0.02,,,0.09,WUHU216PEETBRO,2013-04-24 01:41:00,
2013-04-23 21:46:00,55.8,55.8,29.87,WSW,252,0.0,8.5,100,0.02,,,0.09,WUHU216PEETBRO,2013-04-24 01:46:00,
2013-04-23 21:51:00,55.7,55.7,29.87,SSW,206,3.4,6.6,100,0.01,,,0.09,WUHU216PEETBRO,2013-04-24 01:51:00,
2013-04-23 21:56:00,55.8,55.8,29.87,SW,230,0.0,10.3,100,0.01,,,0.09,WUHU216PEETBRO,2013-04-24 01:56:00,
2013-04-23 22:01:00,55.8,55.8,29.86,WSW,258,0.0,10.3,100,0.01,,,0.09,WUHU216PEETBRO,2013-04-24 02:01:00,
2013-04-23 22:06:00,55.7,55.7,29.86,SW,215,5.2,8.8,100,0.01,,,0.09,WUHU216PEETBRO,2013-04-24 02:06:00,
2013-04-23 22:11:00,55.8,55.8,29.86,SW,218,0.0,9.4,100,0.02,,,0.10,WUHU216PEETBRO,2013-04-24 02:11:00,
2013-04-23 22:16:00,55.7,55.7,29.85,SW,225,0.0,10.2,100,0.02,,,0.10,WUHU216PEETBRO,2013-04-24 02:16:00,
2013-04-23 22:21:00,55.7,55.7,29.86,SW,234,0.0,11.0,100,0.02,,,0.10,WUHU216PEETBRO,2013-04-24 02:21:00,
2013-04-23 22:27:00,55.8,55.8,29.85,SSW,203,3.5,11.8,100,0.02,,,0.10,WUHU216PEETBRO,2013-04-24 02:27:00,
2013-04-23 22:32:00,55.8,55.8,29.85,West,266,0.0,11.8,100,0.01,,,0.10,WUHU216PEETBRO,2013-04-24 02:32:00,
2013-04-23 22:37:00,55.8,55.8,29.86,West,272,0.0,8.1,100,0.01,,,0.10,WUHU216PEETBRO,2013-04-24 02:37:00,
2013-04-23 22:42:00,55.7,55.7,29.85,WSW,241,0.0,8.9,100,0.01,,,0.10,WUHU216PEETBRO,2013-04-24 02:42:00,
2013-04-23 22:47:00,55.7,55.7,29.85,WNW,285,4.8,10.3,100,0.02,,,0.11,WUHU216PEETBRO,2013-04-24 02:47:00,
2013-04-23 22:52:00,55.7,55.7,29.85,WSW,248,0.0,10.3,100,0.02,,,0.11,WUHU216PEETBRO,2013-04-24 02:52:00,
2013-04-23 22:57:00,55.6,55.6,29.85,WSW,248,0.0,8.2,100,0.02,,,0.11,WUHU216PEETBRO,2013-04-24 02:57:00,
2013-04-23 23:02:00,55.5,55.5,29.85,WSW,248,0.0,6.1,100,0.03,,,0.12,WUHU216PEETBRO,2013-04-24 03:02:00,
2013-04-23 23:08:00,55.5,55.5,29.84,SW,225,0.0,5.8,100,0.04,,,0.13,WUHU216PEETBRO,2013-04-24 03:08:00,
2013-04-23 23:13:00,55.4,55.4,29.84,WSW,238,0.0,5.0,100,0.03,,,0.13,WUHU216PEETBRO,2013-04-24 03:13:00,
2013-04-23 23:18:00,55.3,55.3,29.84,South,190,0.0,4.3,100,0.04,,,0.14,WUHU216PEETBRO,2013-04-24 03:18:00,
2013-04-23 23:23:00,55.1,55.1,29.84,South,190,0.0,3.5,100,0.05,,,0.15,WUHU216PEETBRO,2013-04-24 03:23:00,
2013-04-23 23:28:00,55.1,55.1,29.83,South,190,0.0,0.0,100,0.06,,,0.16,WUHU216PEETBRO,2013-04-24 03:28:00,
2013-04-23 23:33:00,55.1,55.1,29.84,South,190,0.0,0.0,100,0.06,,,0.16,WUHU216PEETBRO,2013-04-24 03:33:00,
2013-04-23 23:38:00,55.0,55.0,29.84,South,190,0.0,3.0,100,0.10,,,0.20,WUHU216PEETBRO,2013-04-24 03:38:00,
2013-04-23 23:44:00,55.0,55.0,29.84,South,190,0.0,3.0,100,0.13,,,0.23,WUHU216PEETBRO,2013-04-24 03:44:00,
2013-04-23 23:49:00,55.0,55.0,29.83,South,190,0.0,0.0,100,0.13,,,0.24,WUHU216PEETBRO,2013-04-24 03:49:00,
2013-04-23 23:54:00,54.9,54.9,29.83,South,190,0.0,0.0,100,0.14,,,0.25,WUHU216PEETBRO,2013-04-24 03:54:00,
2013-04-23 23:59:00,54.9,54.9,29.83,South,190,0.0,0.0,100,0.14,,,0.25,WUHU216PEETBRO,2013-04-24 03:59:00,